Flag for Uruguay Weather past 2 weeks in Montevideo, Uruguay

Now
48 °F

Clear.


Feels Like: 43 °F
Forecast: 45 / 53 °F
Wind: 14 mph from Southwest

Location: Carrasco

Current Time: Jul 24, 2014 at 5:39:18 AM

Latest Report: Jul 24, 2014 at 5:00 AM


Visibility: 10 mi

Pressure: 30.07 "Hg

Humidity: 66%

Dew point: 37 °F

Location of MontevideoLocation

Historic Weather in Montevideo — Graph

°F

Montevideo temperature yesterday

Maximum temperature yesterday: 55 °F (at 12:00 AM)
Minimum temperature yesterday: 50 °F (at 8:00 PM)
Average temperature yesterday: 52 °F

Past Weeks' High & Low Weather Summary

 TemperatureHumidityPressure
High70 °F (Jul 14, 2:00 PM)100% (Jul 9, 4:00 AM)30.39 "Hg (Jul 9, 4:00 AM)
Low41 °F (Jul 9, 4:00 AM)43% (Jul 20, 2:00 PM)29.74 "Hg (Jul 22, 1:42 PM)
Average56 °F84%30.10 "Hg
* Reported Jul 9 4:00 AM — Jul 24 4:00 AM, Montevideo, Weather by CustomWeather, © 2014

Note: Actual official high and low records may vary slightly from our data, if they occured in-between our weather recording intervals... More about our weather records

Advertising

Montevideo weather history for previous 24 hours

 ConditionsComfort  
Time TempWeatherWind HumidityBarometerVisibility
4:00 AM
Jul 24
48 °FClear.15 mph66%30.07 "Hg10 mi
3:00 AM50 °FClear.13 mph67%30.07 "Hg10 mi
2:00 AM50 °FPartly cloudy.18 mph67%30.07 "HgN/A
1:00 AM50 °FClear.15 mph67%30.07 "Hg10 mi
12:00 AM50 °FClear.23 mph67%30.07 "Hg10 mi
11:00 PM
Jul 23
50 °FClear.17 mph71%30.04 "Hg10 mi
10:00 PM50 °FPartly cloudy.15 mph76%30.04 "HgN/A
9:00 PM50 °FPartly cloudy.17 mph76%30.01 "HgN/A
8:00 PM50 °FPassing clouds.20 mph76%29.98 "HgN/A
7:00 PM52 °FPassing clouds.17 mph82%29.98 "HgN/A
6:00 PM52 °FPassing clouds.20 mph77%29.95 "HgN/A
5:00 PM52 °FMostly cloudy.16 mph77%29.95 "HgN/A
4:00 PM52 °FMore clouds than sun.16 mph77%29.95 "HgN/A
3:00 PM52 °FMore clouds than sun.15 mph82%29.92 "HgN/A
2:00 PM54 °FPartly sunny.17 mph77%29.95 "HgN/A
1:00 PM54 °FPartly sunny.17 mph77%29.95 "HgN/A
12:00 PM54 °FPartly sunny.16 mph77%29.95 "HgN/A
11:00 AM54 °FOvercast.12 mph77%29.98 "HgN/A
10:00 AM52 °FOvercast.14 mph82%29.98 "HgN/A
7:00 AM52 °FMostly cloudy.15 mph88%29.92 "HgN/A
6:00 AM52 °FMostly cloudy.15 mph88%29.89 "HgN/A
5:00 AM54 °FMostly cloudy.12 mph88%29.89 "HgN/A
Weather by CustomWeather, © 2014

See weather overviewHow to use our weather pages